Location: Haut Kerinec
(48.0623°N, 4.4081°W)
Time: 12:42:25
(UTC+00:00)

Cosmos 1271 Rocket - Pass Details

Date: 01 June 2020
Orbit: 499 x 545 km, 81.2° (Epoch: 01 July)

Event Time Altitude Azimuth Distance (km) Brightness Sun altitude
Exits shadow 22:49:41 39° 168° (SSE) 803 3.1 -17.1°
Maximum altitude 22:50:59 68° 99° (E) 573 2.7 -17.2°
Drops below altitude 10° 22:54:54 10° 16° (NNE) 1,796 6.2 -17.4°
Sets 22:57:06 0° 14° (NNE) 2,699 7.3 -17.5°
